Location: Raven Hill Discovery Center
(45.1336°N, 85.0553°W)
Time: 12:23:20
(UTC-04:00)

Daily predictions for brighter satellites

Satellite Brightness Start Highest point End
(mag) Time Altitude Azimuth Time Altitude Azimuth Time Altitude Azimuth
Cosmos 1603 3.7 21:47:31 10° SSW 21:53:08 88° ESE 21:58:47 10° NNE
Atlas Centaur 2 3.9 21:50:36 10° SW 21:56:12 25° S 22:02:31 10° ESE
Cosmos 1238 4.5 21:57:21 10° SSE 22:00:16 46° E 22:03:14 10° NNE
Envisat 3.1 21:55:39 10° SSE 22:00:41 68° ENE 22:05:45 10° N
Cosmos 1634 Rocket 4.4 21:54:45 10° N 22:00:42 47° ENE 22:06:37 10° SSE
Cosmos 2034 Rocket 4.4 21:56:58 10° NNW 22:03:19 68° W 22:09:33 10° S
Cosmos 407 Rocket 4.3 21:58:53 10° SSE 22:03:24 30° E 22:07:55 10° NE
Cosmos 1943 Rocket 3.4 21:58:46 10° N 22:03:36 29° NE 22:08:26 10° ESE
SL-8 R/B 4.3 22:00:11 10° WNW 22:04:58 59° N 22:09:46 10° E
Nimbus 7 Rocket 4.4 21:59:16 10° NNE 22:05:12 65° ESE 22:11:02 10° S
Cosmos 1953 Rocket 4.4 22:07:03 10° SSE 22:10:59 32° E 22:14:57 10° NNE
Cosmos 1943 3.3 22:07:57 10° S 22:13:29 56° ESE 22:19:03 10° NNE
Cosmos 1953 4.3 22:15:33 10° NNE 22:18:00 16° ENE 22:20:27 10° ESE
Lacrosse 5 rocket 4.1 22:15:20 10° WNW 22:18:14 19° NNW 22:21:14 10° NNE
Cosmos 1939 Rocket 3.4 22:15:09 10° S 22:19:15 62° W 22:23:22 10° NNW
Cosmos 1346 Rocket 3.0 22:27:22 10° S 22:31:09 51° E 22:34:59 10° NNE
Cosmos 1992 Rocket 4.5 22:27:17 10° NNW 22:32:26 59° WSW 22:37:33 10° S
Cosmos 1842 4.4 22:35:17 16° SE 22:37:28 27° E 22:40:48 10° NNE
SeaSat 1 2.5 22:35:39 13° SSE 22:40:00 80° WSW 22:44:59 10° NNW
ARGOS 3.3 22:36:50 14° SSE 22:41:24 63° ENE 22:46:46 10° N
USA 81 4.1 22:36:46 10° N 22:42:05 84° W 22:47:22 10° S
COSMOS 2455 3.5 22:37:56 10° SW 22:43:51 59° NW 22:49:50 10° NNE
Cosmos 1758 Rocket 3.6 22:40:28 11° S 22:44:31 59° E 22:48:49 10° NNE
Meteor 1-21 4.5 22:39:58 10° S 22:45:32 54° E 22:51:11 10° NNE
ISS -2.1 22:47:21 10° W 22:50:30 46° NNW 22:53:40 10° NE
MetOp-B 4.4 22:45:19 10° S 22:50:35 67° WSW 22:55:57 10° NNW
CZ-4B R/B 3.5 22:48:15 10° NNE 22:53:24 86° ESE 22:58:37 10° SSW
Cosmos 2369 Rocket 2.8 22:48:55 10° NW 22:54:24 52° WSW 22:59:14 13° S
Cosmos 1190 Rocket 4.3 22:55:01 10° SSW 23:00:19 72° WNW 23:05:40 10° NNE
Cosmos 1766 3.2 22:56:25 10° N 23:00:27 85° E 23:03:02 21° S
Cosmos 1825 Rocket 4.2 22:56:13 10° SSW 23:00:35 56° WNW 23:04:57 10° N
Landsat 7 4.0 22:58:25 21° SE 23:01:28 58° ENE 23:06:09 10° N
CZ-4 R/B 3.9 22:59:35 10° NNE 23:04:37 78° ESE 23:09:22 12° S
Cosmos 1570 Rocket 4.5 22:59:39 10° NNW 23:04:54 51° ENE 23:08:12 22° SE
Cosmos 1758 3.8 23:02:17 10° N 23:06:17 48° ENE 23:08:15 26° SE
PSLV R/B 3.9 23:03:58 10° WSW 23:07:17 38° S 23:08:17 31° SSE
H-2A R/B 2.3 23:04:51 22° SE 23:07:54 53° ENE 23:12:52 10° N
DELTA 2 DEB (DPAF) 4.1 23:05:25 22° SSE 23:08:16 80° ENE 23:12:47 10° NNW
YAOGAN 6 3.6 23:06:29 15° SSW 23:09:17 44° W 23:12:55 10° NNW
NOAA 11 4.2 23:05:44 18° SSE 23:09:48 84° WSW 23:15:16 10° NNW
ATLAS 3B R/B 3.1 23:02:26 10° SW 23:10:10 82° NW 23:17:42 10° NE
Cosmos 1140 Rocket 3.9 23:07:18 20° SSE 23:10:32 44° ESE 23:15:29 10° NNE
Cosmos 1842 Rocket 4.3 23:09:19 10° N 23:13:27 38° ENE 23:15:21 25° SE
Spot 4 4.4 23:11:57 23° SE 23:14:30 45° ENE 23:19:05 10° N
IGS 5A 4.0 23:12:41 26° SE 23:14:38 46° ENE 23:18:38 10° N
SPOT 5 4.5 23:12:32 10° SSW 23:16:07 24° W 23:19:41 10° NW
SPOT 1/Viking Rocket 4.1 23:12:56 15° S 23:17:06 53° W 23:22:08 10° NNW
Terra 2.0 23:14:42 25° SE 23:17:17 58° ENE 23:21:59 10° N
Cosmos 676 Rocket 4.1 23:12:15 10° SSW 23:17:36 83° WNW 23:22:58 10° NNE
Cosmos 1340 4.4 23:17:42 18° E 23:17:57 18° E 23:20:33 10° NE
Lacrosse 4 Rocket 2.5 23:17:35 10° SW 23:21:29 45° NW 23:25:28 10° NNE
Cosmos 2084 3.4 23:18:34 10° NW 23:22:41 73° SW 23:24:37 32° SSE
Cosmos 1544 4.2 23:19:27 10° N 23:22:53 32° ENE 23:23:55 27° ESE
SAR-Lupe-2 3.5 23:23:38 37° SSE 23:24:57 75° ENE 23:28:33 10° N
USA 234 3.3 23:21:50 23° SE 23:26:10 71° SW 23:32:45 10° NW
Cosmos 1470 3.9 23:23:29 10° NNE 23:26:54 28° ENE 23:27:56 25° ESE
Cosmos 1805 3.2 23:24:32 10° N 23:28:29 74° E 23:29:59 36° SSE
SL-24 R/B 4.5 23:24:02 10° N 23:29:03 89° E 23:32:38 22° S
Lacrosse 5 4.0 23:25:19 10° NW 23:29:26 24° NNE 23:33:32 10° ENE
BREEZE-M DEB (TANK) 2.6 23:27:39 10° W 23:30:03 46° NNW 23:32:05 10° ENE
Cosmos 1092 Rocket 4.4 23:27:08 25° SSE 23:30:25 46° E 23:36:22 10° NNE
Cosmos 614 Rocket 4.4 23:30:46 29° SSE 23:32:49 43° ESE 23:37:46 10° NNE
COSMOS 2406 3.2 23:33:42 18° SSW 23:37:57 70° ESE 23:43:41 10° NNE
Nadezhda 4 Rocket 4.0 23:34:52 24° S 23:38:52 72° E 23:45:11 10° NNE
CZ-4C R/B 4.2 23:38:41 24° SSW 23:40:48 44° W 23:44:39 10° NNW
DMSP B5D2-2 4.0 23:37:17 10° NNE 23:42:35 71° ESE 23:45:23 28° S
Atlas Centaur 2 4.0 23:39:01 10° WSW 23:44:50 23° S 23:46:02 23° S
Cosmos 2221 3.7 23:42:45 10° NNE 23:46:32 29° ENE 23:47:39 25° E
SL-27 R/B 3.2 23:45:17 21° SW 23:47:12 48° WNW 23:50:29 10° N
Cosmos 1943 Rocket 2.8 23:42:14 10° NW 23:47:33 48° WSW 23:50:26 25° SSW
SL-8 R/B 3.6 23:42:52 10° WNW 23:47:42 73° SSW 23:49:39 36° SE
Cosmos-2242 3.9 23:45:08 10° NNW 23:49:21 45° W 23:51:35 24° SSW
COSMOS 2487 2.7 23:54:06 52° ESE 23:54:11 52° ESE 23:57:43 10° NNE
Cosmos 1953 3.1 23:50:56 10° NNW 23:54:44 43° W 23:56:18 28° SW
